12-10-2022, 00:00:06,    175,    0.0,    5.4,   0.00,   0.00, 1019.4,   77.8, -999.0
12-10-2022, 00:00:15,    174,    0.0,    5.4,   0.00,   0.00, 1019.4,   77.8, -999.0
12-10-2022, 00:00:26,    175,    0.0,    5.3,   0.00,   0.00, 1019.4,   77.5, -999.0
12-10-2022, 00:00:35,    175,    0.0,    5.3,   0.00,   0.00, 1019.4,   77.4, -999.0
12-10-2022, 00:00:45,    175,    0.0,    5.2,   0.00,   0.00, 1019.4,   77.4, -999.0
12-10-2022, 00:00:55,    175,    0.0,    5.2,   0.00,   0.00, 1019.4,   77.5, -999.0
12-10-2022, 00:01:05,    175,    0.0,    5.2,   0.00,   0.00, 1019.4,   77.4, -999.0
12-10-2022, 00:01:15,    175,    0.0,    5.2,   0.00,   0.00, 1019.4,   77.5, -999.0
12-10-2022, 00:01:25,    175,    0.0,    5.2,   0.00,   0.00, 1019.4,   77.5, -999.0
12-10-2022, 00:01:35,    175,    0.0,    5.2,   0.00,   0.00, 1019.4,   77.6, -999.0
12-10-2022, 00:01:45,    175,    0.0,    5.2,   0.00,   0.00, 1019.4,   77.5, -999.0
12-10-2022, 00:01:55,    175,    0.0,    5.2,   0.00,   0.00, 1019.4,   77.5, -999.0
12-10-2022, 00:02:05,    175,    0.0,    5.2,   0.00,   0.00, 1019.4,   77.6, -999.0
12-10-2022, 00:02:15,    175,    0.0,    5.2,   0.00,   0.00, 1019.4,   77.5, -999.0
12-10-2022, 00:02:25,    175,    0.0,    5.3,   0.00,   0.00, 1019.4,   77.7, -999.0
12-10-2022, 00:02:35,    175,    0.0,    5.2,   0.00,   0.00, 1019.4,   77.7, -999.0
12-10-2022, 00:02:45,    175,    0.0,    5.3,   0.00,   0.00, 1019.4,   77.6, -999.0
12-10-2022, 00:02:55,    175,    0.0,    5.2,   0.00,   0.00, 1019.4,   77.5, -999.0
12-10-2022, 00:03:05,    175,    0.0,    5.2,   0.00,   0.00, 1019.4,   77.6, -999.0
12-10-2022, 00:03:15,    175,    0.0,    5.2,   0.00,   0.00, 1019.4,   77.5, -999.0
12-10-2022, 00:03:24,    175,    0.0,    5.2,   0.00,   0.00, 1019.4,   77.6, -999.0
12-10-2022, 00:03:35,    175,    0.0,    5.2,   0.00,   0.00, 1019.4,   77.6, -999.0
12-10-2022, 00:03:44,    175,    0.0,    5.2,   0.00,   0.00, 1019.4,   77.5, -999.0
12-10-2022, 00:03:54,    175,    0.0,    5.2,   0.00,   0.00, 1019.4,   77.6, -999.0
12-10-2022, 00:04:04,    175,    0.0,    5.2,   0.00,   0.00, 1019.4,   77.6, -999.0
12-10-2022, 00:04:14,    175,    0.0,    5.2,   0.00,   0.00, 1019.4,   77.6, -999.0
12-10-2022, 00:04:24,    175,    0.0,    5.2,   0.00,   0.00, 1019.4,   77.7, -999.0
12-10-2022, 00:04:34,    174,    0.0,    5.4,   0.00,   0.00, 1019.4,   77.8, -999.0
12-10-2022, 00:04:44,    175,    0.0,    5.4,   0.00,   0.00, 1019.4,   77.7, -999.0
12-10-2022, 00:04:54,    175,    0.0,    5.4,   0.00,   0.00, 1019.4,   77.5, -999.0
12-10-2022, 00:05:04,    175,    0.0,    5.3,   0.00,   0.00, 1019.4,   77.4, -999.0
12-10-2022, 00:05:14,    175,    0.0,    5.4,   0.00,   0.00, 1019.5,   77.5, -999.0
12-10-2022, 00:05:24,    175,    0.0,    5.4,   0.00,   0.00, 1019.4,   77.4, -999.0
12-10-2022, 00:05:34,    175,    0.0,    5.3,   0.00,   0.00, 1019.4,   77.3, -999.0
12-10-2022, 00:05:44,    174,    0.0,    5.3,   0.00,   0.00, 1019.4,   77.4, -999.0
12-10-2022, 00:05:54,    175,    0.0,    5.2,   0.00,   0.00, 1019.4,   77.2, -999.0
12-10-2022, 00:06:04,    175,    0.0,    5.2,   0.00,   0.00, 1019.4,   77.3, -999.0
12-10-2022, 00:06:14,    175,    0.0,    5.2,   0.00,   0.00, 1019.4,   77.3, -999.0
12-10-2022, 00:06:24,    175,    0.0,    5.2,   0.00,   0.00, 1019.4,   77.5, -999.0
12-10-2022, 00:06:33,    175,    0.0,    5.2,   0.00,   0.00, 1019.4,   77.4, -999.0
12-10-2022, 00:06:44,    175,    0.0,    5.1,   0.00,   0.00, 1019.5,   77.5, -999.0
12-10-2022, 00:06:53,    175,    0.0,    5.2,   0.00,   0.00, 1019.4,   77.4, -999.0
12-10-2022, 00:07:03,    175,    0.0,    5.3,   0.00,   0.00, 1019.4,   77.5, -999.0
12-10-2022, 00:07:13,    175,    0.0,    5.3,   0.00,   0.00, 1019.5,   77.4, -999.0
12-10-2022, 00:07:23,    175,    0.0,    5.2,   0.00,   0.00, 1019.5,   77.4, -999.0
12-10-2022, 00:07:33,    175,    0.0,    5.2,   0.00,   0.00, 1019.4,   77.5, -999.0
12-10-2022, 00:07:43,    175,    0.0,    5.3,   0.00,   0.00, 1019.5,   77.5, -999.0
12-10-2022, 00:07:53,    172,    0.0,    5.3,   0.00,   0.00, 1019.4,   77.8, -999.0
12-10-2022, 00:08:03,    175,    0.0,    5.4,   0.00,   0.00, 1019.4,   77.6, -999.0
12-10-2022, 00:08:13,    175,    0.0,    5.3,   0.00,   0.00, 1019.4,   77.5, -999.0
12-10-2022, 00:08:23,    175,    0.0,    5.3,   0.00,   0.00, 1019.4,   77.4, -999.0
12-10-2022, 00:08:33,    175,    0.0,    5.3,   0.00,   0.00, 1019.4,   77.4, -999.0
12-10-2022, 00:08:43,    175,    0.0,    5.3,   0.00,   0.00, 1019.4,   77.3, -999.0
12-10-2022, 00:08:53,    175,    0.0,    5.3,   0.00,   0.00, 1019.4,   77.4, -999.0
12-10-2022, 00:09:03,    175,    0.0,    5.2,   0.00,   0.00, 1019.4,   77.4, -999.0
12-10-2022, 00:09:13,    175,    0.0,    5.3,   0.00,   0.00, 1019.4,   77.3, -999.0
12-10-2022, 00:09:23,    175,    0.0,    5.3,   0.00,   0.00, 1019.4,   77.4, -999.0
12-10-2022, 00:09:33,    175,    0.0,    5.3,   0.00,   0.00, 1019.4,   77.4, -999.0
12-10-2022, 00:09:42,    175,    0.0,    5.3,   0.00,   0.00, 1019.4,   77.3, -999.0
12-10-2022, 00:09:53,    175,    0.0,    5.3,   0.00,   0.00, 1019.4,   77.4, -999.0
12-10-2022, 00:10:02,    175,    0.0,    5.3,   0.00,   0.00, 1019.4,   77.3, -999.0
12-10-2022, 00:10:12,    175,    0.0,    5.3,   0.00,   0.00, 1019.4,   77.4, -999.0
12-10-2022, 00:10:22,    175,    0.0,    5.3,   0.00,   0.00, 1019.4,   77.3, -999.0
12-10-2022, 00:10:32,    175,    0.0,    5.3,   0.00,   0.00, 1019.4,   77.4, -999.0
12-10-2022, 00:10:42,    175,    0.0,    5.3,   0.00,   0.00, 1019.4,   77.4, -999.0
12-10-2022, 00:10:52,    175,    0.0,    5.2,   0.00,   0.00, 1019.4,   77.4, -999.0
12-10-2022, 00:11:02,    175,    0.0,    5.3,   0.00,   0.00, 1019.4,   77.4, -999.0
12-10-2022, 00:11:12,    175,    0.0,    5.3,   0.00,   0.00, 1019.4,   77.4, -999.0
12-10-2022, 00:11:22,    175,    0.0,    5.3,   0.00,   0.00, 1019.4,   77.3, -999.0
12-10-2022, 00:11:32,    175,    0.0,    5.3,   0.00,   0.00, 1019.4,   77.3, -999.0
12-10-2022, 00:11:42,    175,    0.0,    5.3,   0.00,   0.00, 1019.4,   77.3, -999.0
12-10-2022, 00:11:52,    175,    0.0,    5.2,   0.00,   0.00, 1019.4,   77.3, -999.0
12-10-2022, 00:12:02,    175,    0.0,    5.2,   0.00,   0.00, 1019.4,   77.3, -999.0
12-10-2022, 00:12:12,    175,    0.0,    5.2,   0.00,   0.00, 1019.4,   77.4, -999.0
12-10-2022, 00:12:22,    175,    0.0,    5.3,   0.00,   0.00, 1019.4,   77.3, -999.0
12-10-2022, 00:12:32,    175,    0.0,    5.2,   0.00,   0.00, 1019.4,   77.3, -999.0
12-10-2022, 00:12:42,    175,    0.0,    5.2,   0.00,   0.00, 1019.4,   77.3, -999.0
12-10-2022, 00:12:51,    175,    0.0,    5.2,   0.00,   0.00, 1019.4,   77.4, -999.0
12-10-2022, 00:13:02,    175,    0.0,    5.2,   0.00,   0.00, 1019.4,   77.4, -999.0
12-10-2022, 00:13:11,    175,    0.0,    5.1,   0.00,   0.00, 1019.4,   77.4, -999.0
12-10-2022, 00:13:21,    175,    0.0,    5.2,   0.00,   0.00, 1019.4,   77.5, -999.0
12-10-2022, 00:13:31,    175,    0.0,    5.2,   0.00,   0.00, 1019.4,   77.5, -999.0
12-10-2022, 00:13:41,    175,    0.0,    5.2,   0.00,   0.00, 1019.4,   77.6, -999.0
12-10-2022, 00:13:51,    175,    0.0,    5.2,   0.00,   0.00, 1019.4,   77.6, -999.0
12-10-2022, 00:14:01,    175,    0.0,    5.2,   0.00,   0.00, 1019.4,   77.6, -999.0
12-10-2022, 00:14:11,    175,    0.0,    5.2,   0.00,   0.00, 1019.4,   77.6, -999.0
12-10-2022, 00:14:21,    175,    0.0,    5.2,   0.00,   0.00, 1019.4,   77.6, -999.0
12-10-2022, 00:14:31,    175,    0.0,    5.2,   0.00,   0.00, 1019.4,   77.5, -999.0
12-10-2022, 00:14:41,    175,    0.0,    5.1,   0.00,   0.00, 1019.4,   77.6, -999.0
12-10-2022, 00:14:51,    175,    0.0,    5.1,   0.00,   0.00, 1019.4,   77.6, -999.0
12-10-2022, 00:15:01,    175,    0.0,    5.0,   0.00,   0.00, 1019.4,   77.6, -999.0
12-10-2022, 00:15:11,    175,    0.0,    5.1,   0.00,   0.00, 1019.4,   77.6, -999.0
12-10-2022, 00:15:21,    175,    0.0,    5.1,   0.00,   0.00, 1019.4,   77.6, -999.0
12-10-2022, 00:15:31,    175,    0.0,    5.1,   0.00,   0.00, 1019.4,   77.6, -999.0
12-10-2022, 00:15:41,    175,    0.0,    5.1,   0.00,   0.00, 1019.4,   77.6, -999.0
12-10-2022, 00:15:51,    175,    0.0,    5.1,   0.00,   0.00, 1019.4,   77.7, -999.0
12-10-2022, 00:16:00,    175,    0.0,    5.1,   0.00,   0.00, 1019.4,   77.7, -999.0
12-10-2022, 00:16:11,    175,    0.0,    5.2,   0.00,   0.00, 1019.4,   77.6, -999.0
12-10-2022, 00:16:20,    175,    0.0,    5.1,   0.00,   0.00, 1019.4,   77.7, -999.0
12-10-2022, 00:16:30,    175,    0.0,    5.2,   0.00,   0.00, 1019.4,   77.8, -999.0
12-10-2022, 00:16:40,    175,    0.0,    5.2,   0.00,   0.00, 1019.4,   77.8, -999.0
12-10-2022, 00:16:50,    175,    0.0,    5.2,   0.00,   0.00, 1019.4,   77.7, -999.0
12-10-2022, 00:17:00,    175,    0.0,    5.2,   0.00,   0.00, 1019.4,   77.7, -999.0
12-10-2022, 00:17:10,    175,    0.0,    5.2,   0.00,   0.00, 1019.4,   77.7, -999.0
12-10-2022, 00:17:20,    175,    0.0,    5.2,   0.00,   0.00, 1019.3,   77.6, -999.0
12-10-2022, 00:17:30,    175,    0.0,    5.2,   0.00,   0.00, 1019.4,   77.7, -999.0
12-10-2022, 00:17:40,    175,    0.0,    5.1,   0.00,   0.00, 1019.4,   77.6, -999.0
12-10-2022, 00:17:50,    175,    0.0,    5.2,   0.00,   0.00, 1019.4,   77.6, -999.0
12-10-2022, 00:18:00,    175,    0.0,    5.1,   0.00,   0.00, 1019.4,   77.6, -999.0
12-10-2022, 00:18:10,    175,    0.0,    5.2,   0.00,   0.00, 1019.4,   77.7, -999.0
12-10-2022, 00:18:20,    175,    0.0,    5.1,   0.00,   0.00, 1019.4,   77.7, -999.0
12-10-2022, 00:18:30,    175,    0.0,    5.2,   0.00,   0.00, 1019.4,   77.6, -999.0
12-10-2022, 00:18:40,    175,    0.0,    5.2,   0.00,   0.00, 1019.4,   77.7, -999.0
12-10-2022, 00:18:50,    175,    0.0,    5.1,   0.00,   0.00, 1019.4,   77.8, -999.0
12-10-2022, 00:19:00,    175,    0.0,    5.1,   0.00,   0.00, 1019.4,   77.8, -999.0
12-10-2022, 00:19:09,    175,    0.0,    5.2,   0.00,   0.00, 1019.4,   77.8, -999.0
12-10-2022, 00:19:20,    175,    0.0,    5.2,   0.00,   0.00, 1019.4,   77.7, -999.0
12-10-2022, 00:19:29,    175,    0.0,    5.2,   0.00,   0.00, 1019.4,   77.7, -999.0
12-10-2022, 00:19:40,    175,    0.0,    5.1,   0.00,   0.00, 1019.4,   77.7, -999.0
12-10-2022, 00:19:49,    175,    0.0,    5.2,   0.00,   0.00, 1019.4,   77.7, -999.0
12-10-2022, 00:19:59,    175,    0.0,    5.2,   0.00,   0.00, 1019.4,   77.7, -999.0
12-10-2022, 00:20:09,    175,    0.0,    5.1,   0.00,   0.00, 1019.4,   77.7, -999.0
12-10-2022, 00:20:19,    175,    0.0,    5.1,   0.00,   0.00, 1019.4,   77.8, -999.0
12-10-2022, 00:20:29,    175,    0.0,    5.1,   0.00,   0.00, 1019.4,   77.8, -999.0
12-10-2022, 00:20:39,    175,    0.0,    5.1,   0.00,   0.00, 1019.4,   77.8, -999.0
12-10-2022, 00:20:49,    175,    0.0,    5.1,   0.00,   0.00, 1019.4,   77.8, -999.0
12-10-2022, 00:20:59,    175,    0.0,    5.1,   0.00,   0.00, 1019.4,   77.7, -999.0
12-10-2022, 00:21:09,    175,    0.0,    5.1,   0.00,   0.00, 1019.4,   77.8, -999.0
12-10-2022, 00:21:19,    175,    0.0,    5.1,   0.00,   0.00, 1019.4,   77.8, -999.0
12-10-2022, 00:21:29,    175,    0.0,    5.1,   0.00,   0.00, 1019.4,   77.8, -999.0
12-10-2022, 00:21:39,    175,    0.0,    5.1,   0.00,   0.00, 1019.4,   77.9, -999.0
12-10-2022, 00:21:49,    175,    0.0,    5.1,   0.00,   0.00, 1019.4,   77.9, -999.0
12-10-2022, 00:21:59,    175,    0.0,    5.1,   0.00,   0.00, 1019.4,   78.0, -999.0
12-10-2022, 00:22:09,    175,    0.0,    5.1,   0.00,   0.00, 1019.4,   78.0, -999.0
12-10-2022, 00:22:18,    175,    0.0,    5.1,   0.00,   0.00, 1019.4,   78.0, -999.0
12-10-2022, 00:22:29,    175,    0.0,    5.1,   0.00,   0.00, 1019.4,   77.9, -999.0
12-10-2022, 00:22:38,    175,    0.0,    5.1,   0.00,   0.00, 1019.4,   77.9, -999.0
12-10-2022, 00:22:48,    175,    0.0,    5.1,   0.00,   0.00, 1019.4,   77.9, -999.0
12-10-2022, 00:22:58,    175,    0.0,    5.1,   0.00,   0.00, 1019.4,   77.9, -999.0
12-10-2022, 00:23:08,    175,    0.0,    5.1,   0.00,   0.00, 1019.4,   77.9, -999.0
12-10-2022, 00:23:18,    175,    0.0,    5.1,   0.00,   0.00, 1019.4,   77.9, -999.0
12-10-2022, 00:23:28,    175,    0.0,    5.1,   0.00,   0.00, 1019.4,   77.9, -999.0
12-10-2022, 00:23:38,    175,    0.0,    5.1,   0.00,   0.00, 1019.4,   77.9, -999.0
12-10-2022, 00:23:48,    175,    0.0,    5.1,   0.00,   0.00, 1019.4,   77.9, -999.0
12-10-2022, 00:23:58,    175,    0.0,    5.1,   0.00,   0.00, 1019.4,   77.9, -999.0
12-10-2022, 00:24:08,    175,    0.0,    5.1,   0.00,   0.00, 1019.4,   77.9, -999.0
12-10-2022, 00:24:18,    175,    0.0,    5.1,   0.00,   0.00, 1019.4,   78.0, -999.0
12-10-2022, 00:24:28,    175,    0.0,    5.1,   0.00,   0.00, 1019.4,   78.0, -999.0
12-10-2022, 00:24:38,    175,    0.0,    5.1,   0.00,   0.00, 1019.4,   78.0, -999.0
12-10-2022, 00:24:48,    175,    0.0,    5.1,   0.00,   0.00, 1019.4,   77.9, -999.0
12-10-2022, 00:24:58,    175,    0.0,    5.1,   0.00,   0.00, 1019.4,   78.0, -999.0
12-10-2022, 00:25:08,    175,    0.0,    5.1,   0.00,   0.00, 1019.4,   78.1, -999.0
12-10-2022, 00:25:17,    175,    0.0,    5.1,   0.00,   0.00, 1019.4,   77.9, -999.0
12-10-2022, 00:25:27,    175,    0.0,    5.1,   0.00,   0.00, 1019.4,   78.0, -999.0
12-10-2022, 00:25:38,    175,    0.0,    5.1,   0.00,   0.00, 1019.4,   77.9, -999.0
12-10-2022, 00:25:47,    175,    0.0,    5.1,   0.00,   0.00, 1019.5,   77.9, -999.0
12-10-2022, 00:25:57,    175,    0.0,    5.1,   0.00,   0.00, 1019.4,   77.9, -999.0
12-10-2022, 00:26:07,    175,    0.0,    5.2,   0.00,   0.00, 1019.4,   78.0, -999.0
12-10-2022, 00:26:17,    175,    0.0,    5.1,   0.00,   0.00, 1019.4,   78.0, -999.0
12-10-2022, 00:26:27,    175,    0.0,    5.1,   0.00,   0.00, 1019.4,   78.0, -999.0
12-10-2022, 00:26:37,    175,    0.0,    5.2,   0.00,   0.00, 1019.4,   78.0, -999.0
12-10-2022, 00:26:47,    175,    0.0,    5.1,   0.00,   0.00, 1019.4,   77.9, -999.0
12-10-2022, 00:26:57,    175,    0.0,    5.1,   0.00,   0.00, 1019.4,   77.9, -999.0
12-10-2022, 00:27:07,    175,    0.0,    5.1,   0.00,   0.00, 1019.4,   77.9, -999.0
12-10-2022, 00:27:17,    175,    0.0,    5.0,   0.00,   0.00, 1019.4,   78.0, -999.0
12-10-2022, 00:27:27,    175,    0.0,    5.1,   0.00,   0.00, 1019.4,   77.9, -999.0
12-10-2022, 00:27:37,    175,    0.0,    5.1,   0.00,   0.00, 1019.4,   78.0, -999.0
12-10-2022, 00:27:47,    175,    0.0,    5.2,   0.00,   0.00, 1019.4,   78.0, -999.0
12-10-2022, 00:27:57,    175,    0.0,    5.2,   0.00,   0.00, 1019.4,   78.0, -999.0
12-10-2022, 00:28:07,    175,    0.0,    5.1,   0.00,   0.00, 1019.4,   78.0, -999.0
12-10-2022, 00:28:17,    175,    0.0,    5.1,   0.00,   0.00, 1019.4,   78.0, -999.0
12-10-2022, 00:28:26,    175,    0.0,    5.2,   0.00,   0.00, 1019.4,   78.1, -999.0
12-10-2022, 00:28:36,    174,    0.0,    5.2,   0.00,   0.00, 1019.4,   78.0, -999.0
12-10-2022, 00:28:47,    175,    0.0,    5.1,   0.00,   0.00, 1019.4,   78.0, -999.0
12-10-2022, 00:28:56,    175,    0.0,    5.2,   0.00,   0.00, 1019.4,   78.0, -999.0
12-10-2022, 00:29:06,    175,    0.0,    5.2,   0.00,   0.00, 1019.4,   77.9, -999.0
12-10-2022, 00:29:16,    175,    0.0,    5.2,   0.00,   0.00, 1019.4,   77.9, -999.0
12-10-2022, 00:29:26,    175,    0.0,    5.3,   0.00,   0.00, 1019.4,   77.9, -999.0
12-10-2022, 00:29:36,    175,    0.0,    5.2,   0.00,   0.00, 1019.4,   77.9, -999.0
12-10-2022, 00:29:46,    175,    0.0,    5.2,   0.00,   0.00, 1019.4,   77.8, -999.0
12-10-2022, 00:29:56,    175,    0.0,    5.2,   0.00,   0.00, 1019.4,   77.8, -999.0
12-10-2022, 00:30:06,    175,    0.0,    5.1,   0.00,   0.00, 1019.4,   77.8, -999.0
12-10-2022, 00:30:16,    175,    0.0,    5.2,   0.00,   0.00, 1019.4,   77.8, -999.0
12-10-2022, 00:30:26,    175,    0.0,    5.2,   0.00,   0.00, 1019.4,   77.8, -999.0
12-10-2022, 00:30:36,    175,    0.0,    5.3,   0.00,   0.00, 1019.4,   77.8, -999.0
12-10-2022, 00:30:46,    175,    0.0,    5.2,   0.00,   0.00, 1019.4,   77.8, -999.0
12-10-2022, 00:30:56,    175,    0.0,    5.2,   0.00,   0.00, 1019.4,   77.9, -999.0
12-10-2022, 00:31:06,    175,    0.0,    5.2,   0.00,   0.00, 1019.4,   77.9, -999.0
12-10-2022, 00:31:16,    175,    0.0,    5.2,   0.00,   0.00, 1019.4,   77.9, -999.0
12-10-2022, 00:31:26,    175,    0.0,    5.2,   0.00,   0.00, 1019.4,   77.9, -999.0
12-10-2022, 00:31:35,    175,    0.0,    5.1,   0.00,   0.00, 1019.4,   77.8, -999.0
12-10-2022, 00:31:45,    175,    0.0,    5.2,   0.00,   0.00, 1019.4,   77.9, -999.0
12-10-2022, 00:31:56,    175,    0.0,    5.2,   0.00,   0.00, 1019.4,   77.9, -999.0
12-10-2022, 00:32:05,    175,    0.0,    5.2,   0.00,   0.00, 1019.4,   77.9, -999.0
12-10-2022, 00:32:15,    175,    0.0,    5.1,   0.00,   0.00, 1019.4,   78.0, -999.0
12-10-2022, 00:32:25,    175,    0.0,    5.2,   0.00,   0.00, 1019.4,   78.0, -999.0
12-10-2022, 00:32:35,    175,    0.0,    5.2,   0.00,   0.00, 1019.4,   78.0, -999.0
12-10-2022, 00:32:45,    175,    0.0,    5.1,   0.00,   0.00, 1019.4,   77.9, -999.0
12-10-2022, 00:32:55,    175,    0.0,    5.1,   0.00,   0.00, 1019.4,   77.9, -999.0
12-10-2022, 00:33:05,    175,    0.0,    5.1,   0.00,   0.00, 1019.4,   77.8, -999.0
12-10-2022, 00:33:15,    175,    0.0,    5.1,   0.00,   0.00, 1019.4,   77.9, -999.0
12-10-2022, 00:33:25,    175,    0.0,    5.2,   0.00,   0.00, 1019.4,   77.9, -999.0
12-10-2022, 00:33:35,    175,    0.0,    5.2,   0.00,   0.00, 1019.4,   78.0, -999.0
12-10-2022, 00:33:45,    175,    0.0,    5.1,   0.00,   0.00, 1019.4,   77.9, -999.0
12-10-2022, 00:33:55,    175,    0.0,    5.2,   0.00,   0.00, 1019.4,   77.9, -999.0
12-10-2022, 00:34:05,    175,    0.0,    5.2,   0.00,   0.00, 1019.4,   78.0, -999.0
12-10-2022, 00:34:15,    175,    0.0,    5.2,   0.00,   0.00, 1019.4,   77.9, -999.0
12-10-2022, 00:34:25,    175,    0.0,    5.1,   0.00,   0.00, 1019.4,   77.9, -999.0
12-10-2022, 00:34:35,    175,    0.0,    5.1,   0.00,   0.00, 1019.4,   77.9, -999.0
12-10-2022, 00:34:45,    175,    0.0,    5.1,   0.00,   0.00, 1019.4,   77.9, -999.0
12-10-2022, 00:34:54,    174,    0.0,    5.2,   0.00,   0.00, 1019.4,   77.9, -999.0
12-10-2022, 00:35:05,    175,    0.0,    5.2,   0.00,   0.00, 1019.4,   77.9, -999.0
12-10-2022, 00:35:14,    175,    0.0,    5.1,   0.00,   0.00, 1019.4,   77.9, -999.0
12-10-2022, 00:35:24,    175,    0.0,    5.1,   0.00,   0.00, 1019.4,   77.9, -999.0
12-10-2022, 00:35:34,    175,    0.0,    5.1,   0.00,   0.00, 1019.4,   77.9, -999.0
12-10-2022, 00:35:44,    175,    0.0,    5.1,   0.00,   0.00, 1019.4,   77.9, -999.0
12-10-2022, 00:35:54,    175,    0.0,    5.1,   0.00,   0.00, 1019.4,   78.0, -999.0
12-10-2022, 00:36:04,    175,    0.0,    5.1,   0.00,   0.00, 1019.4,   78.0, -999.0
12-10-2022, 00:36:14,    175,    0.0,    5.1,   0.00,   0.00, 1019.4,   78.0, -999.0
12-10-2022, 00:36:24,    175,    0.0,    5.1,   0.00,   0.00, 1019.4,   78.0, -999.0
12-10-2022, 00:36:34,    175,    0.0,    5.1,   0.00,   0.00, 1019.4,   78.0, -999.0
12-10-2022, 00:36:44,    175,    0.0,    5.1,   0.00,   0.00, 1019.5,   78.0, -999.0
12-10-2022, 00:36:54,    175,    0.0,    5.0,   0.00,   0.00, 1019.4,   78.0, -999.0
12-10-2022, 00:37:04,    175,    0.0,    5.1,   0.00,   0.00, 1019.4,   78.1, -999.0
12-10-2022, 00:37:14,    175,    0.0,    5.1,   0.00,   0.00, 1019.4,   78.0, -999.0
12-10-2022, 00:37:24,    175,    0.0,    5.1,   0.00,   0.00, 1019.4,   78.0, -999.0
12-10-2022, 00:37:34,    175,    0.0,    5.1,   0.00,   0.00, 1019.4,   78.0, -999.0
12-10-2022, 00:37:44,    175,    0.0,    5.0,   0.00,   0.00, 1019.4,   77.9, -999.0
12-10-2022, 00:37:54,    175,    0.0,    5.0,   0.00,   0.00, 1019.4,   78.0, -999.0
12-10-2022, 00:38:03,    175,    0.0,    5.1,   0.00,   0.00, 1019.4,   78.1, -999.0
12-10-2022, 00:38:14,    175,    0.0,    5.1,   0.00,   0.00, 1019.4,   78.0, -999.0
12-10-2022, 00:38:23,    175,    0.0,    5.1,   0.00,   0.00, 1019.4,   78.1, -999.0
12-10-2022, 00:38:33,    175,    0.0,    5.1,   0.00,   0.00, 1019.4,   78.0, -999.0
12-10-2022, 00:38:43,    175,    0.0,    5.1,   0.00,   0.00, 1019.4,   78.1, -999.0
12-10-2022, 00:38:53,    175,    0.0,    5.1,   0.00,   0.00, 1019.4,   78.0, -999.0
12-10-2022, 00:39:03,    175,    0.0,    5.1,   0.00,   0.00, 1019.4,   78.0, -999.0
12-10-2022, 00:39:13,    175,    0.0,    5.1,   0.00,   0.00, 1019.4,   78.2, -999.0
12-10-2022, 00:39:23,    175,    0.0,    5.1,   0.00,   0.00, 1019.4,   78.1, -999.0
12-10-2022, 00:39:33,    175,    0.0,    5.1,   0.00,   0.00, 1019.4,   78.1, -999.0
12-10-2022, 00:39:43,    175,    0.0,    5.1,   0.00,   0.00, 1019.4,   78.1, -999.0
12-10-2022, 00:39:53,    175,    0.0,    5.0,   0.00,   0.00, 1019.4,   78.0, -999.0
12-10-2022, 00:40:03,    175,    0.0,    5.1,   0.00,   0.00, 1019.4,   78.1, -999.0
12-10-2022, 00:40:13,    175,    0.0,    5.1,   0.00,   0.00, 1019.4,   78.2, -999.0
12-10-2022, 00:40:23,    175,    0.0,    5.1,   0.00,   0.00, 1019.4,   78.2, -999.0
12-10-2022, 00:40:33,    175,    0.0,    5.1,   0.00,   0.00, 1019.4,   78.2, -999.0
12-10-2022, 00:40:43,    175,    0.0,    5.1,   0.00,   0.00, 1019.4,   78.2, -999.0
12-10-2022, 00:40:53,    175,    0.0,    5.0,   0.00,   0.00, 1019.4,   78.1, -999.0
12-10-2022, 00:41:03,    175,    0.0,    5.0,   0.00,   0.00, 1019.4,   78.0, -999.0
12-10-2022, 00:41:12,    175,    0.0,    5.1,   0.00,   0.00, 1019.4,   78.1, -999.0
12-10-2022, 00:41:23,    175,    0.0,    5.1,   0.00,   0.00, 1019.4,   78.1, -999.0
12-10-2022, 00:41:33,    175,    0.0,    5.1,   0.00,   0.00, 1019.4,   78.2, -999.0
12-10-2022, 00:41:42,    175,    0.0,    5.1,   0.00,   0.00, 1019.4,   78.2, -999.0
12-10-2022, 00:41:52,    175,    0.0,    5.1,   0.00,   0.00, 1019.4,   78.2, -999.0
12-10-2022, 00:42:02,    175,    0.0,    5.1,   0.00,   0.00, 1019.4,   78.1, -999.0
12-10-2022, 00:42:12,    175,    0.0,    5.0,   0.00,   0.00, 1019.4,   78.1, -999.0
12-10-2022, 00:42:22,    175,    0.0,    5.0,   0.00,   0.00, 1019.4,   78.1, -999.0
12-10-2022, 00:42:32,    175,    0.0,    5.1,   0.00,   0.00, 1019.4,   78.1, -999.0
12-10-2022, 00:42:42,    175,    0.0,    5.0,   0.00,   0.00, 1019.4,   78.2, -999.0
12-10-2022, 00:42:52,    175,    0.0,    5.0,   0.00,   0.00, 1019.4,   78.1, -999.0
12-10-2022, 00:43:02,    175,    0.0,    4.9,   0.00,   0.00, 1019.4,   78.2, -999.0
12-10-2022, 00:43:12,    175,    0.0,    5.0,   0.00,   0.00, 1019.4,   78.2, -999.0
12-10-2022, 00:43:22,    175,    0.0,    5.0,   0.00,   0.00, 1019.4,   78.2, -999.0
12-10-2022, 00:43:32,    175,    0.0,    5.0,   0.00,   0.00, 1019.4,   78.3, -999.0
12-10-2022, 00:43:42,    175,    0.0,    4.9,   0.00,   0.00, 1019.4,   78.3, -999.0
12-10-2022, 00:43:52,    175,    0.0,    5.0,   0.00,   0.00, 1019.4,   78.4, -999.0
12-10-2022, 00:44:02,    175,    0.0,    5.0,   0.00,   0.00, 1019.4,   78.4, -999.0
12-10-2022, 00:44:12,    175,    0.0,    5.0,   0.00,   0.00, 1019.4,   78.5, -999.0
12-10-2022, 00:44:21,    175,    0.0,    5.0,   0.00,   0.00, 1019.4,   78.5, -999.0
12-10-2022, 00:44:32,    175,    0.0,    5.0,   0.00,   0.00, 1019.4,   78.6, -999.0
12-10-2022, 00:44:42,    175,    0.0,    5.0,   0.00,   0.00, 1019.4,   78.5, -999.0
12-10-2022, 00:44:51,    175,    0.0,    5.0,   0.00,   0.00, 1019.4,   78.5, -999.0
12-10-2022, 00:45:01,    175,    0.0,    5.0,   0.00,   0.00, 1019.4,   78.5, -999.0
12-10-2022, 00:45:11,    175,    0.0,    4.9,   0.00,   0.00, 1019.4,   78.5, -999.0
12-10-2022, 00:45:21,    175,    0.0,    5.0,   0.00,   0.00, 1019.4,   78.5, -999.0
12-10-2022, 00:45:31,    175,    0.0,    5.0,   0.00,   0.00, 1019.4,   78.5, -999.0
12-10-2022, 00:45:41,    175,    0.0,    5.0,   0.00,   0.00, 1019.4,   78.5, -999.0
12-10-2022, 00:45:51,    175,    0.0,    5.0,   0.00,   0.00, 1019.4,   78.4, -999.0
12-10-2022, 00:46:01,    175,    0.0,    5.0,   0.00,   0.00, 1019.4,   78.6, -999.0
12-10-2022, 00:46:12,    175,    0.0,    5.0,   0.00,   0.00, 1019.4,   78.6, -999.0
12-10-2022, 00:46:21,    175,    0.0,    5.0,   0.00,   0.00, 1019.4,   78.5, -999.0
12-10-2022, 00:46:31,    175,    0.0,    5.0,   0.00,   0.00, 1019.4,   78.5, -999.0
12-10-2022, 00:46:41,    175,    0.0,    5.1,   0.00,   0.00, 1019.4,   78.5, -999.0